Big Island of Hawaii Weather Center

Moon Phase Calendar



Online Cameras

 


      

Current Conditions in Hawaii County
9/25/2021 10:54:44 AM

50°F
Feels Like 46
Clouds
Humidity
44%
Pressure
30.12"
Wind
8.1 mph (ESE)
Dew Point
29°F
UV Index
9/10 (Very High)
Visibility
6 mi

Hourly Forecast

Date & Time Sat, Sep 25
10:00 AM
Sat, Sep 25
11:00 AM
Sat, Sep 25
12:00 PM
Sat, Sep 25
1:00 PM
Sat, Sep 25
2:00 PM
Sat, Sep 25
3:00 PM
Sat, Sep 25
4:00 PM
Sat, Sep 25
5:00 PM
Sat, Sep 25
6:00 PM
Sat, Sep 25
7:00 PM
Sat, Sep 25
8:00 PM
Sat, Sep 25
9:00 PM
Sat, Sep 25
10:00 PM
Sat, Sep 25
11:00 PM
Sun, Sep 26
12:00 AM
Sun, Sep 26
1:00 AM
Sun, Sep 26
2:00 AM
Sun, Sep 26
3:00 AM
Sun, Sep 26
4:00 AM
Sun, Sep 26
5:00 AM
Sun, Sep 26
6:00 AM
Sun, Sep 26
7:00 AM
Sun, Sep 26
8:00 AM
Sun, Sep 26
9:00 AM
Sun, Sep 26
10:00 AM
Sun, Sep 26
11:00 AM
Sun, Sep 26
12:00 PM
Sun, Sep 26
1:00 PM
Sun, Sep 26
2:00 PM
Sun, Sep 26
3:00 PM
Sun, Sep 26
4:00 PM
Sun, Sep 26
5:00 PM
Sun, Sep 26
6:00 PM
Sun, Sep 26
7:00 PM
Sun, Sep 26
8:00 PM
Sun, Sep 26
9:00 PM
Sun, Sep 26
10:00 PM
Sun, Sep 26
11:00 PM
Mon, Sep 27
12:00 AM
Mon, Sep 27
1:00 AM
Mon, Sep 27
2:00 AM
Mon, Sep 27
3:00 AM
Mon, Sep 27
4:00 AM
Mon, Sep 27
5:00 AM
Mon, Sep 27
6:00 AM
Mon, Sep 27
7:00 AM
Mon, Sep 27
8:00 AM
Mon, Sep 27
9:00 AM
Condition
Clouds

Clouds

Clouds

Clouds

Clouds

Clouds

Clouds

Clouds

Clouds

Clouds

Clouds

Clouds

Clouds

Clouds

Clouds

Clouds

Clouds

Clouds

Clouds

Rain

Rain

Rain

Rain

Clouds

Clouds

Clouds

Clouds

Clouds

Rain

Clouds

Clouds

Rain

Clouds

Clouds

Clouds

Clouds

Clouds

Clouds

Clouds

Clouds

Clouds

Clear

Clear

Clear

Clear

Clear

Clear

Clear
Temperature 50°F50°F51°F52°F54°F54°F54°F52°F51°F50°F49°F49°F49°F49°F49°F50°F50°F50°F50°F50°F51°F51°F51°F53°F54°F54°F55°F55°F54°F54°F53°F52°F51°F51°F50°F49°F49°F49°F49°F49°F49°F48°F48°F47°F47°F50°F52°F55°F
Feels Like 47°F46°F48°F49°F51°F52°F52°F51°F50°F49°F47°F47°F47°F46°F46°F46°F46°F46°F47°F49°F50°F50°F50°F52°F53°F53°F53°F54°F53°F52°F52°F51°F50°F49°F49°F49°F49°F49°F49°F49°F49°F48°F48°F47°F47°F50°F50°F52°F
Cloudiness 90%89%86%81%79%37%35%52%61%67%65%37%26%26%31%33%41%78%78%78%78%78%78%78%78%80%84%86%88%95%96%96%96%96%88%38%31%26%20%17%14%1%2%2%2%2%2%0%
Visibility 6 mi6 mi6 mi6 mi6 mi6 mi6 mi1 mi5 mi5 mi6 mi6 mi6 mi6 mi6 mi3 mi4 mi3 mi3 mi3 mi3 mi3 mi3 mi3 mi3 mi3 mi4 mi4 mi1 mi1 mi1 mi4 mi2 mi6 mi6 mi6 mi6 mi6 mi6 mi6 mi6 mi6 mi6 mi6 mi6 mi6 mi6 mi6 mi
Precipitation 7%7%7%7%9%8%8%14%9%14%17%21%21%21%25%25%36%40%44%48%48%48%46%42%40%36%36%36%36%59%59%59%58%53%53%21%23%19%19%19%16%9%5%7%9%14%17%14%
Humidity 47%44%42%42%47%58%71%80%84%83%80%78%79%82%85%87%87%89%91%91%91%90%89%87%86%83%78%79%81%83%84%86%86%83%82%80%77%74%70%67%64%64%63%62%61%55%48%45%
Dew Point 31°F29°F29°F30°F34°F40°F47°F49°F49°F48°F46°F45°F46°F47°F47°F49°F48°F49°F50°F50°F51°F51°F51°F51°F52°F52°F51°F51°F51°F51°F51°F50°F50°F48°F47°F46°F45°F44°F42°F41°F40°F39°F38°F37°F36°F37°F35°F36°F
Pressure 30.12"30.12"30.12"30.12"30.09"30.06"30.09"30.09"30.12"30.15"30.21"30.21"30.21"30.21"30.21"30.18"30.18"30.18"30.15"30.15"30.18"30.18"30.21"30.21"30.21"30.21"30.18"30.18"30.15"30.15"30.15"30.15"30.18"30.21"30.24"30.24"30.27"30.24"30.21"30.18"30.18"30.15"30.15"30.15"30.18"30.18"30.18"30.18"
Wind Speed 8.5 mph8.1 mph7.8 mph7.2 mph6.2 mph6 mph6 mph6.1 mph5.8 mph6.2 mph6.4 mph6.1 mph6.9 mph7.3 mph7 mph7.5 mph8.6 mph7.6 mph8.2 mph8.9 mph8.8 mph8.7 mph8 mph6.5 mph6.3 mph5.2 mph4.8 mph5.5 mph5.1 mph4.6 mph4.7 mph4.7 mph4.8 mph3.7 mph3.7 mph3.6 mph3.1 mph2.6 mph2.6 mph2.5 mph2.6 mph2.4 mph2.1 mph1.8 mph2.3 mph2.3 mph1.7 mph2 mph
Wind
Direction
115°
ESE
123°
ESE
131°
SE
128°
SE
120°
ESE
118°
ESE
116°
ESE
111°
ESE
108°
ESE
102°
ESE
101°
E
102°
ESE
102°
ESE
101°
E
98°
E
94°
E
94°
E
96°
E
95°
E
94°
E
95°
E
96°
E
95°
E
96°
E
96°
E
96°
E
90°
E
87°
E
84°
E
85°
E
81°
E
67°
ENE
60°
ENE
60°
ENE
53°
NE
48°
NE
33°
NNE
26°
NNE
16°
NNE
13°
NNE
22°
NNE
13°
NNE
24°
NNE
47°
NE
39°
NE
36°
NE
47°
NE
43°
NE

Daily Forecast

Date High Low Precip. Humidity
Today
Sep 25

Clouds
54 °F
44 °F
21%
42%
Sunday
Sep 26

Rain
55 °F
49 °F
59%
78%
Monday
Sep 27

Clear
58 °F
47 °F
30%
47%
Tuesday
Sep 28

Rain
53 °F
45 °F
40%
60%
Wednesday
Sep 29

Rain
56 °F
46 °F
40%
49%
Thursday
Sep 30

Rain
55 °F
47 °F
57%
55%
Friday
Oct 1

Rain
55 °F
48 °F
29%
65%
Saturday
Oct 2

Rain
55 °F
48 °F
38%
58%
Sunday
Oct 3

Rain
56 °F
50 °F
35%
57%
Monday
Oct 4

Rain
57 °F
50 °F
34%
56%
Tuesday
Oct 5

Rain
55 °F
48 °F
41%
53%
Wednesday
Oct 6

Rain
55 °F
47 °F
37%
56%
Thursday
Oct 7

Clear
55 °F
46 °F
38%
38%
Friday
Oct 8

Rain
53 °F
46 °F
62%
40%
Saturday
Oct 9

Rain
54 °F
45 °F
90%
63%
Sunday
Oct 10

Rain
50 °F
48 °F
97%
89%

Temperature 8-14 Day Outlook



Precipitation 8-14 Day Outlook




Quick Links
Big Island of Hawaii News
Big Island of Hawaii Photos
Big Island of Hawaii Videos




About Us
Contact Us
Site Map
Search Site
Advertise With Us
   
Hawaii.USCoast.info
THE BIG ISLAND OF HAWAII WEBSITE

Copyright 2021, Coastal Town
Privacy    |    Legal